When you browse on this site, cookies collect data to enhance your experience and personalize the content and advertising you see.
Visit our Privacy Policy to learn more. By continuing to use the site, you agree to this use of cookies and data.
  • In Latvia
  • List of Countries
  • For 7 days
  • Water Temperature
  • Weather Map
  • Weather Widgets
  • user-avatar
    Login

    Hourly Weather Gold Coast

    Today, 1 June, Monday

    Time Temperature Precipitation Wind Pressure Humidity
    00:00 +15°C° 0 mm 2 mps 760 mmHg 91%
    01:00 +15°C° 0 mm 2 mps 760 mmHg 92%
    02:00 +15°C° 0 mm 2 mps 760 mmHg 92%
    03:00 +15°C° 0 mm 2 mps 760 mmHg 93%
    04:00 +15°C° 0 mm 2 mps 759 mmHg 93%
    05:00 +15°C° 0 mm 2 mps 759 mmHg 93%
    06:00 +15°C° 0 mm 2 mps 759 mmHg 93%
    07:00 +15°C° 0 mm 2 mps 760 mmHg 93%
    08:00 +17°C° 0 mm 3 mps 760 mmHg 83%
    09:00 +19°C° 0 mm 3 mps 760 mmHg 72%
    10:00 +22°C° 0 mm 3 mps 759 mmHg 62%
    11:00 +24°C° 0 mm 3 mps 759 mmHg 58%
    12:00 +23°C° 0 mm 4 mps 758 mmHg 54%
    13:00 +25°C° 0 mm 4 mps 757 mmHg 50%
    14:00 +25°C° 0.1 mm 4 mps 757 mmHg 54%
    15:00 +23°C° 0.1 mm 4 mps 757 mmHg 59%
    16:00 +22°C° 0.1 mm 4 mps 756 mmHg 64%
    17:00 +21°C° 0.3 mm 4 mps 756 mmHg 71%
    18:00 +19°C° 0.3 mm 4 mps 757 mmHg 78%
    19:00 +17°C° 0.3 mm 4 mps 757 mmHg 86%
    20:00 +17°C° 0.2 mm 4 mps 757 mmHg 86%
    21:00 +17°C° 0.2 mm 4 mps 757 mmHg 87%
    22:00 +15°C° 0.2 mm 4 mps 757 mmHg 87%
    23:00 +15°C° 0 mm 4 mps 757 mmHg 88%

    Tomorrow, 2 June, Tuesday

    Time Temperature Precipitation Wind Pressure Humidity
    00:00 +14°C° 0 mm 4 mps 757 mmHg 90%
    01:00 +13°C° 0 mm 3 mps 756 mmHg 91%
    02:00 +13°C° 0 mm 3 mps 757 mmHg 90%
    03:00 +12°C° 0 mm 3 mps 757 mmHg 89%
    04:00 +11°C° 0 mm 3 mps 757 mmHg 87%
    05:00 +11°C° 0 mm 4 mps 758 mmHg 87%
    06:00 +10°C° 0 mm 4 mps 758 mmHg 87%
    07:00 +10°C° 0 mm 4 mps 759 mmHg 86%
    08:00 +12°C° 0 mm 4 mps 759 mmHg 70%
    09:00 +14°C° 0 mm 4 mps 759 mmHg 54%
    10:00 +17°C° 0 mm 3 mps 760 mmHg 38%
    11:00 +18°C° 0 mm 3 mps 759 mmHg 35%
    12:00 +19°C° 0 mm 3 mps 759 mmHg 32%
    13:00 +20°C° 0 mm 3 mps 758 mmHg 28%
    14:00 +19°C° 0 mm 4 mps 758 mmHg 32%
    15:00 +19°C° 0 mm 4 mps 759 mmHg 36%
    16:00 +18°C° 0 mm 4 mps 759 mmHg 40%
    17:00 +15°C° 0 mm 4 mps 759 mmHg 46%
    18:00 +13°C° 0 mm 4 mps 760 mmHg 52%
    19:00 +11°C° 0 mm 4 mps 760 mmHg 57%
    20:00 +10°C° 0 mm 4 mps 760 mmHg 61%
    21:00 +9°C° 0 mm 3 mps 761 mmHg 64%
    22:00 +8°C° 0 mm 3 mps 761 mmHg 68%
    23:00 +8°C° 0 mm 3 mps 761 mmHg 70%

    Day after tomorrow, 3 June, Wednesday

    Time Temperature Precipitation Wind Pressure Humidity
    00:00 +8°C° 0 mm 2 mps 761 mmHg 72%
    01:00 +7°C° 0 mm 2 mps 761 mmHg 73%
    02:00 +7°C° 0 mm 2 mps 761 mmHg 74%
    03:00 +7°C° 0 mm 2 mps 761 mmHg 75%
    04:00 +7°C° 0 mm 2 mps 761 mmHg 76%
    05:00 +7°C° 0 mm 2 mps 761 mmHg 74%
    06:00 +7°C° 0 mm 2 mps 762 mmHg 73%
    07:00 +7°C° 0 mm 2 mps 762 mmHg 72%
    08:00 +11°C° 0 mm 1 mps 762 mmHg 61%
    09:00 +15°C° 0 mm 1 mps 762 mmHg 50%
    10:00 +19°C° 0 mm 1 mps 762 mmHg 40%
    11:00 +20°C° 0 mm 1 mps 762 mmHg 38%
    12:00 +21°C° 0 mm 1 mps 761 mmHg 37%
    13:00 +22°C° 0 mm 1 mps 761 mmHg 35%
    14:00 +20°C° 0 mm 2 mps 761 mmHg 41%
    15:00 +19°C° 0 mm 2 mps 761 mmHg 47%
    16:00 +18°C° 0 mm 2 mps 761 mmHg 53%
    17:00 +16°C° 0 mm 3 mps 762 mmHg 60%
    18:00 +13°C° 0 mm 3 mps 763 mmHg 67%
    19:00 +11°C° 0 mm 3 mps 763 mmHg 75%
    20:00 +11°C° 0 mm 3 mps 764 mmHg 74%
    21:00 +11°C° 0 mm 3 mps 764 mmHg 74%
    22:00 +11°C° 0 mm 3 mps 765 mmHg 73%
    23:00 +11°C° 0 mm 4 mps 765 mmHg 77%

    4 June, Thursday

    Time Temperature Precipitation Wind Pressure Humidity
    00:00 +11°C° 0 mm 4 mps 765 mmHg 80%
    01:00 +10°C° 0 mm 5 mps 765 mmHg 84%
    02:00 +9°C° 0 mm 5 mps 765 mmHg 85%
    03:00 +9°C° 0 mm 5 mps 764 mmHg 87%
    04:00 +8°C° 0 mm 5 mps 764 mmHg 88%
    05:00 +9°C° 0 mm 5 mps 765 mmHg 86%
    06:00 +9°C° 0 mm 5 mps 765 mmHg 84%
    07:00 +9°C° 0 mm 5 mps 766 mmHg 82%
    08:00 +11°C° 0 mm 6 mps 766 mmHg 75%
    09:00 +15°C° 0 mm 6 mps 766 mmHg 69%
    10:00 +17°C° 0 mm 7 mps 766 mmHg 62%
    11:00 +17°C° 0 mm 7 mps 766 mmHg 62%
    12:00 +17°C° 0 mm 7 mps 766 mmHg 63%
    13:00 +18°C° 0 mm 7 mps 765 mmHg 63%
    14:00 +18°C° 0 mm 7 mps 765 mmHg 62%
    15:00 +17°C° 0 mm 6 mps 765 mmHg 60%
    16:00 +17°C° 0 mm 6 mps 765 mmHg 59%
    17:00 +15°C° 0 mm 6 mps 766 mmHg 68%
    18:00 +14°C° 0 mm 5 mps 766 mmHg 76%
    19:00 +12°C° 0 mm 5 mps 767 mmHg 84%
    20:00 +12°C° 0 mm 5 mps 767 mmHg 87%
    21:00 +10°C° 0 mm 5 mps 767 mmHg 90%
    22:00 +10°C° 0 mm 5 mps 767 mmHg 93%
    23:00 +10°C° 0 mm 5 mps 767 mmHg 92%

    5 June, Friday

    Time Temperature Precipitation Wind Pressure Humidity
    00:00 +10°C° 0 mm 5 mps 767 mmHg 90%
    01:00 +11°C° 0 mm 4 mps 766 mmHg 89%
    02:00 +11°C° 0.1 mm 4 mps 766 mmHg 90%
    03:00 +10°C° 0.1 mm 4 mps 766 mmHg 91%
    04:00 +10°C° 0.1 mm 4 mps 766 mmHg 92%
    05:00 +10°C° 0 mm 4 mps 766 mmHg 92%
    06:00 +10°C° 0 mm 4 mps 766 mmHg 92%
    07:00 +10°C° 0 mm 4 mps 767 mmHg 91%
    08:00 +12°C° 0 mm 4 mps 767 mmHg 83%
    09:00 +14°C° 0 mm 4 mps 767 mmHg 74%
    10:00 +18°C° 0 mm 4 mps 767 mmHg 66%
    11:00 +18°C° 0.1 mm 4 mps 766 mmHg 64%
    12:00 +19°C° 0.1 mm 5 mps 765 mmHg 61%
    13:00 +20°C° 0.1 mm 5 mps 765 mmHg 59%
    14:00 +19°C° 0.1 mm 5 mps 765 mmHg 62%
    15:00 +19°C° 0.1 mm 5 mps 764 mmHg 65%
    16:00 +17°C° 0.1 mm 5 mps 764 mmHg 68%
    17:00 +17°C° 0.1 mm 4 mps 765 mmHg 76%
    18:00 +14°C° 0.1 mm 4 mps 765 mmHg 84%
    19:00 +13°C° 0.1 mm 4 mps 765 mmHg 92%
    20:00 +13°C° 0.1 mm 4 mps 765 mmHg 92%
    21:00 +13°C° 0.1 mm 4 mps 765 mmHg 92%
    22:00 +12°C° 0.1 mm 4 mps 765 mmHg 92%
    23:00 +12°C° 0.2 mm 3 mps 765 mmHg 91%

    6 June, Saturday

    Time Temperature Precipitation Wind Pressure Humidity
    00:00 +12°C° 0.2 mm 3 mps 765 mmHg 90%
    01:00 +12°C° 0.2 mm 3 mps 764 mmHg 89%
    02:00 +12°C° 0.3 mm 3 mps 764 mmHg 89%
    03:00 +12°C° 0.3 mm 3 mps 764 mmHg 89%
    04:00 +12°C° 0.3 mm 3 mps 764 mmHg 90%
    05:00 +12°C° 0.2 mm 3 mps 764 mmHg 90%
    06:00 +12°C° 0.2 mm 3 mps 764 mmHg 90%
    07:00 +12°C° 0.2 mm 2 mps 765 mmHg 90%
    08:00 +14°C° 0 mm 3 mps 764 mmHg 81%
    09:00 +17°C° 0 mm 3 mps 764 mmHg 72%
    10:00 +19°C° 0 mm 3 mps 764 mmHg 62%
    11:00 +20°C° 0 mm 3 mps 763 mmHg 61%
    12:00 +20°C° 0 mm 3 mps 763 mmHg 59%
    13:00 +21°C° 0 mm 3 mps 762 mmHg 58%
    14:00 +20°C° 0.1 mm 3 mps 762 mmHg 62%
    15:00 +20°C° 0.1 mm 2 mps 762 mmHg 66%
    16:00 +19°C° 0.1 mm 2 mps 761 mmHg 70%
    17:00 +17°C° 0.1 mm 2 mps 762 mmHg 78%
    18:00 +16°C° 0.1 mm 1 mps 762 mmHg 85%
    19:00 +14°C° 0.1 mm 1 mps 762 mmHg 93%
    20:00 +14°C° 0.1 mm 1 mps 762 mmHg 93%
    21:00 +14°C° 0.1 mm 1 mps 762 mmHg 94%
    22:00 +13°C° 0.1 mm 1 mps 762 mmHg 95%
    23:00 +13°C° 0.1 mm 1 mps 762 mmHg 94%
    Show more